Patuxent River, MD

2:56 PM EST on February 25, 2018 (GMT -0500)
Patuxent River Naval Air Station

Weather History for KNHK - February, 2013

Change the Weather History Date:

Thursday, February 21, 2013

  Actual Average Record
Temperature  
Mean Temperature 32 °F -  
Max Temperature 39 °F 50 °F 78 °F (2018)
Min Temperature 26 °F 30 °F 3 °F (2015)
Degree Days  
Heating Degree Days 32    
Moisture  
Dew Point 13 °F    
Average Humidity 45    
Maximum Humidity 51    
Minimum Humidity 36    
Precipitation  
Precipitation 0.00 in - - ()
Sea Level Pressure  
Sea Level Pressure 30.20 in    
Wind  
Wind Speed 18 mph (NW)    
Max Wind Speed 22 mph    
Max Gust Speed 30 mph    
Visibility 10 miles    
Events      
Averages and records for this station are not official NWS values.
T = Trace of Precipitation, MM = Missing Value Source: NWS Daily Summary

Daily Weather History Graph

Daily Weather History Graph

Search for Another Location

Airport or City:

Trip Planner

Search our weather history database for the weather conditions in past years. The results will help you decide how hot, cold, wet, or windy it might be!

Date:

Astronomy

Feb. 21, 2013 Rise Set
Actual Time 6:48 AM EST 5:50 PM EST
Civil Twilight 6:21 AM EST 6:17 PM EST
Nautical Twilight 5:50 AM EST 6:48 PM EST
Astronomical Twilight 5:20 AM EST 7:18 PM EST
Moon 2:05 PM EST (2/21) 3:49 AM EST (2/21)
Length of Visible Light 11h 56m
Length of Day
11h 02m
Waxing Gibbous, 83% of the Moon is Illuminated
Feb 21
Waxing Gibbous
Feb 25
Full
Mar 4
Last Quarter
Mar 11
New
Mar 19
First Quarter

Hourly Weather History & Observations

Time (EST) Temp. Windchill Dew Point Humidity Pressure Visibility Wind Dir Wind Speed Gust Speed Precip Events Conditions
12:52 AM 28.0 °F 14.3 °F 9.0 °F 45% 30.13 in 10.0 mi NW 21.9 mph 26.5 mph N/A   Clear
1:52 AM 27.0 °F 13.9 °F 9.0 °F 47% 30.14 in 10.0 mi NW 18.4 mph 25.3 mph N/A   Clear
2:52 AM 27.0 °F 15.2 °F 9.0 °F 47% 30.14 in 10.0 mi NW 15.0 mph 24.2 mph N/A   Clear
3:52 AM 27.0 °F 13.2 °F 9.0 °F 47% 30.14 in 10.0 mi NW 20.7 mph - N/A   Clear
4:52 AM 27.0 °F 13.5 °F 10.0 °F 49% 30.15 in 10.0 mi NW 19.6 mph - N/A   Clear
4:59 AM 26.6 °F 13.1 °F 10.4 °F 51% 30.15 in 10.0 mi NW 19.6 mph 27.6 mph N/A   Clear
5:52 AM 27.0 °F 13.5 °F 10.9 °F 51% 30.16 in 10.0 mi NW 19.6 mph 29.9 mph N/A   Partly Cloudy
6:52 AM 27.0 °F 13.9 °F 10.9 °F 51% 30.18 in 10.0 mi WNW 18.4 mph 25.3 mph N/A   Partly Cloudy
7:52 AM 28.0 °F 17.5 °F 10.0 °F 47% 30.19 in 10.0 mi West 12.7 mph - N/A   Partly Cloudy
8:52 AM 30.0 °F 19.1 °F 10.9 °F 45% 30.21 in 10.0 mi WNW 15.0 mph 24.2 mph N/A   Scattered Clouds
9:52 AM 32.0 °F 20.8 °F 12.9 °F 45% 30.20 in 10.0 mi WNW 17.3 mph - N/A   Scattered Clouds
10:52 AM 33.1 °F 21.9 °F 12.9 °F 43% 30.21 in 10.0 mi WNW 18.4 mph 27.6 mph N/A   Scattered Clouds
11:52 AM 35.1 °F 25.2 °F 14.0 °F 42% 30.19 in 10.0 mi WNW 16.1 mph - N/A   Partly Cloudy
12:52 PM 37.9 °F 28.5 °F 16.0 °F 41% 30.18 in 10.0 mi NW 17.3 mph - N/A   Clear
1:52 PM 39.0 °F 29.0 °F 17.1 °F 41% 30.15 in 10.0 mi NW 20.7 mph 25.3 mph N/A   Clear
2:52 PM 39.9 °F 30.2 °F 15.1 °F 36% 30.15 in 10.0 mi NW 20.7 mph 26.5 mph N/A   Clear
3:52 PM 39.9 °F 30.8 °F 15.1 °F 36% 30.16 in 10.0 mi WNW 18.4 mph - N/A   Clear
4:52 PM 39.9 °F 31.1 °F 15.1 °F 36% 30.17 in 10.0 mi NW 17.3 mph 21.9 mph N/A   Partly Cloudy
5:52 PM 37.9 °F 29.2 °F 15.1 °F 39% 30.21 in 10.0 mi NW 15.0 mph - N/A   Partly Cloudy
6:52 PM 37.0 °F 28.9 °F 16.0 °F 42% 30.25 in 10.0 mi NW 12.7 mph - N/A   Clear
7:52 PM 35.1 °F 26.9 °F 16.0 °F 46% 30.27 in 10.0 mi NW 11.5 mph - N/A   Clear
8:52 PM 35.1 °F 26.9 °F 16.0 °F 46% 30.30 in 10.0 mi NW 11.5 mph - N/A   Clear
9:52 PM 34.0 °F 25.0 °F 16.0 °F 48% 30.31 in 10.0 mi NW 12.7 mph - N/A   Clear
10:52 PM 33.1 °F 24.4 °F 15.1 °F 48% 30.30 in 10.0 mi NNW 11.5 mph - N/A   Partly Cloudy
11:52 PM 34.0 °F 25.5 °F 16.0 °F 48% 30.29 in 10.0 mi NNW 11.5 mph - N/A   Clear